Voltar ao catálogo

BLITS

AtivoCiênciaSSO
NORAD 35871·PAYLOAD·🇷🇺 Russia

Lançado Sep 17, 2009 de Baikonur Cosmodrome

Loading…

Próximas Passagens (próximas 24 horas)

TLE

AtualizadoSource: Space-Track

Época: Sep 14, 2026, 03:56 UTC

1 35871U 09049G   26257.16429722 -.00000005  00000-0  17824-4 0  9993
2 35871  98.7778 219.1319 0004473  72.0449 288.1215 14.22188618881120

Acompanhe BLITS em tempo real com AllMySat

Download on the App Store